When you browse on this site, cookies collect data to enhance your experience and personalize the content and advertising you see.
Visit our Privacy Policy to learn more. By continuing to use the site, you agree to this use of cookies and data.
  • In Hungary
  • List of Countries
  • For 7 days
  • Water Temperature
  • Weather Map
  • News
  • Weather Widgets
  • user-avatar
    Login

    Hourly Weather Stowbtsy

    Today, 25 August, Sunday

    Time Temperature Precipitation Wind Pressure Humidity
    00:00 +15°C° 0 mm 0 mps 754 mmHg 79%
    01:00 +14°C° 0 mm 0 mps 754 mmHg 81%
    02:00 +14°C° 0 mm 0 mps 755 mmHg 82%
    03:00 +15°C° 0 mm 1 mps 755 mmHg 84%
    04:00 +15°C° 0 mm 1 mps 755 mmHg 85%
    05:00 +14°C° 0 mm 1 mps 755 mmHg 87%
    06:00 +16°C° 0 mm 1 mps 755 mmHg 83%
    07:00 +18°C° 0 mm 1 mps 755 mmHg 79%
    08:00 +20°C° 0 mm 1 mps 755 mmHg 75%
    09:00 +21°C° 0 mm 1 mps 755 mmHg 70%
    10:00 +23°C° 0 mm 1 mps 755 mmHg 65%
    11:00 +24°C° 0 mm 1 mps 755 mmHg 61%
    12:00 +25°C° 0 mm 1 mps 755 mmHg 58%
    13:00 +26°C° 0 mm 1 mps 755 mmHg 56%
    14:00 +26°C° 0 mm 1 mps 755 mmHg 54%
    15:00 +26°C° 0 mm 1 mps 755 mmHg 58%
    16:00 +25°C° 0 mm 1 mps 755 mmHg 61%
    17:00 +25°C° 0 mm 1 mps 754 mmHg 65%
    18:00 +23°C° 0 mm 2 mps 754 mmHg 71%
    19:00 +20°C° 0 mm 2 mps 755 mmHg 76%
    20:00 +19°C° 0 mm 2 mps 755 mmHg 82%
    21:00 +18°C° 0 mm 2 mps 755 mmHg 84%
    22:00 +18°C° 0 mm 2 mps 755 mmHg 86%
    23:00 +17°C° 0 mm 2 mps 755 mmHg 88%

    Tomorrow, 26 August, Monday

    Time Temperature Precipitation Wind Pressure Humidity
    00:00 +17°C° 0 mm 2 mps 755 mmHg 90%
    01:00 +16°C° 0 mm 2 mps 755 mmHg 91%
    02:00 +16°C° 0 mm 2 mps 755 mmHg 93%
    03:00 +16°C° 0 mm 2 mps 755 mmHg 93%
    04:00 +15°C° 0 mm 2 mps 755 mmHg 93%
    05:00 +15°C° 0 mm 2 mps 755 mmHg 94%
    06:00 +16°C° 0 mm 2 mps 755 mmHg 89%
    07:00 +18°C° 0 mm 2 mps 755 mmHg 85%
    08:00 +19°C° 0 mm 2 mps 755 mmHg 80%
    09:00 +20°C° 0 mm 2 mps 755 mmHg 75%
    10:00 +23°C° 0 mm 2 mps 755 mmHg 69%
    11:00 +25°C° 0 mm 2 mps 755 mmHg 64%
    12:00 +25°C° 0 mm 2 mps 755 mmHg 62%
    13:00 +26°C° 0 mm 2 mps 755 mmHg 59%
    14:00 +26°C° 0 mm 2 mps 754 mmHg 57%
    15:00 +26°C° 0 mm 2 mps 754 mmHg 59%
    16:00 +26°C° 0 mm 1 mps 754 mmHg 61%
    17:00 +26°C° 0 mm 1 mps 753 mmHg 62%
    18:00 +24°C° 0 mm 1 mps 753 mmHg 68%
    19:00 +22°C° 0 mm 1 mps 753 mmHg 74%
    20:00 +20°C° 0 mm 1 mps 753 mmHg 80%
    21:00 +20°C° 0 mm 1 mps 753 mmHg 82%
    22:00 +19°C° 0 mm 1 mps 753 mmHg 83%
    23:00 +19°C° 0 mm 1 mps 753 mmHg 85%

    Day after tomorrow, 27 August, Tuesday

    Time Temperature Precipitation Wind Pressure Humidity
    00:00 +18°C° 0 mm 1 mps 753 mmHg 86%
    01:00 +18°C° 0 mm 1 mps 753 mmHg 87%
    02:00 +16°C° 0 mm 1 mps 753 mmHg 88%
    03:00 +16°C° 0 mm 1 mps 753 mmHg 88%
    04:00 +15°C° 0 mm 0 mps 753 mmHg 89%
    05:00 +15°C° 0 mm 0 mps 753 mmHg 89%
    06:00 +16°C° 0 mm 0 mps 753 mmHg 84%
    07:00 +18°C° 0 mm 0 mps 753 mmHg 79%
    08:00 +19°C° 0 mm 0 mps 753 mmHg 74%
    09:00 +23°C° 0 mm 1 mps 753 mmHg 69%
    10:00 +24°C° 0 mm 1 mps 753 mmHg 65%
    11:00 +26°C° 0 mm 1 mps 753 mmHg 61%
    12:00 +26°C° 0 mm 1 mps 753 mmHg 58%
    13:00 +27°C° 0 mm 1 mps 753 mmHg 56%
    14:00 +27°C° 0 mm 1 mps 753 mmHg 53%
    15:00 +27°C° 0 mm 1 mps 753 mmHg 56%
    16:00 +27°C° 0 mm 1 mps 753 mmHg 58%
    17:00 +26°C° 0 mm 1 mps 752 mmHg 61%
    18:00 +24°C° 0 mm 1 mps 752 mmHg 67%
    19:00 +23°C° 0 mm 1 mps 753 mmHg 73%
    20:00 +21°C° 0 mm 1 mps 753 mmHg 78%
    21:00 +20°C° 0 mm 1 mps 753 mmHg 80%
    22:00 +20°C° 0 mm 1 mps 753 mmHg 82%
    23:00 +18°C° 0 mm 2 mps 753 mmHg 84%

    28 August, Wednesday

    Time Temperature Precipitation Wind Pressure Humidity
    00:00 +18°C° 0 mm 2 mps 753 mmHg 85%
    01:00 +17°C° 0 mm 2 mps 753 mmHg 87%
    02:00 +17°C° 0 mm 2 mps 753 mmHg 88%
    03:00 +16°C° 0 mm 2 mps 753 mmHg 90%
    04:00 +16°C° 0 mm 2 mps 753 mmHg 91%
    05:00 +15°C° 0 mm 2 mps 753 mmHg 92%
    06:00 +16°C° 0 mm 2 mps 753 mmHg 88%
    07:00 +18°C° 0 mm 2 mps 753 mmHg 84%
    08:00 +19°C° 0 mm 2 mps 753 mmHg 79%
    09:00 +20°C° 0 mm 2 mps 753 mmHg 73%
    10:00 +22°C° 0 mm 3 mps 753 mmHg 67%
    11:00 +24°C° 0 mm 3 mps 754 mmHg 60%
    12:00 +24°C° 0 mm 3 mps 753 mmHg 58%
    13:00 +25°C° 0 mm 3 mps 753 mmHg 55%
    14:00 +25°C° 0 mm 3 mps 753 mmHg 53%
    15:00 +25°C° 0 mm 3 mps 753 mmHg 55%
    16:00 +24°C° 0 mm 3 mps 753 mmHg 57%
    17:00 +24°C° 0 mm 3 mps 752 mmHg 59%
    18:00 +21°C° 0 mm 3 mps 752 mmHg 65%
    19:00 +19°C° 0 mm 3 mps 752 mmHg 71%
    20:00 +17°C° 0 mm 3 mps 752 mmHg 76%
    21:00 +17°C° 0 mm 3 mps 753 mmHg 78%
    22:00 +16°C° 0 mm 3 mps 753 mmHg 79%
    23:00 +14°C° 0 mm 3 mps 753 mmHg 80%

    29 August, Thursday

    Time Temperature Precipitation Wind Pressure Humidity
    00:00 +14°C° 0 mm 3 mps 753 mmHg 82%
    01:00 +13°C° 0 mm 3 mps 753 mmHg 84%
    02:00 +13°C° 0 mm 3 mps 753 mmHg 86%
    03:00 +12°C° 0 mm 3 mps 753 mmHg 87%
    04:00 +12°C° 0 mm 3 mps 753 mmHg 88%
    05:00 +11°C° 0 mm 3 mps 753 mmHg 88%
    06:00 +12°C° 0 mm 3 mps 753 mmHg 83%
    07:00 +13°C° 0 mm 4 mps 753 mmHg 78%
    08:00 +14°C° 0 mm 4 mps 753 mmHg 72%
    09:00 +17°C° 0 mm 4 mps 753 mmHg 66%
    10:00 +18°C° 0 mm 4 mps 753 mmHg 60%
    11:00 +19°C° 0 mm 5 mps 753 mmHg 55%
    12:00 +20°C° 0 mm 5 mps 753 mmHg 53%
    13:00 +20°C° 0 mm 5 mps 753 mmHg 51%
    14:00 +20°C° 0 mm 4 mps 753 mmHg 49%
    15:00 +20°C° 0 mm 4 mps 753 mmHg 51%
    16:00 +20°C° 0 mm 4 mps 753 mmHg 53%
    17:00 +19°C° 0 mm 4 mps 752 mmHg 55%
    18:00 +18°C° 0 mm 4 mps 753 mmHg 59%
    19:00 +15°C° 0 mm 4 mps 753 mmHg 63%
    20:00 +13°C° 0 mm 4 mps 753 mmHg 66%
    21:00 +13°C° 0 mm 4 mps 753 mmHg 69%
    22:00 +12°C° 0 mm 4 mps 753 mmHg 71%
    23:00 +11°C° 0 mm 4 mps 753 mmHg 73%

    30 August, Friday

    Time Temperature Precipitation Wind Pressure Humidity
    00:00 +11°C° 0 mm 4 mps 753 mmHg 75%
    01:00 +10°C° 0 mm 3 mps 753 mmHg 77%
    02:00 +10°C° 0 mm 3 mps 753 mmHg 79%
    03:00 +9°C° 0 mm 3 mps 753 mmHg 81%
    04:00 +9°C° 0 mm 3 mps 753 mmHg 82%
    05:00 +9°C° 0 mm 3 mps 753 mmHg 84%
    06:00 +10°C° 0 mm 3 mps 753 mmHg 80%
    07:00 +11°C° 0 mm 4 mps 753 mmHg 75%
    08:00 +12°C° 0 mm 4 mps 753 mmHg 71%
    09:00 +14°C° 0 mm 4 mps 753 mmHg 66%
    10:00 +17°C° 0 mm 4 mps 753 mmHg 61%
    11:00 +17°C° 0 mm 5 mps 753 mmHg 56%
    12:00 +19°C° 0 mm 5 mps 753 mmHg 55%
    13:00 +20°C° 0 mm 4 mps 753 mmHg 53%
    14:00 +20°C° 0 mm 4 mps 753 mmHg 52%
    15:00 +20°C° 0 mm 4 mps 752 mmHg 55%
    16:00 +20°C° 0 mm 4 mps 752 mmHg 57%
    17:00 +20°C° 0 mm 3 mps 752 mmHg 60%
    18:00 +18°C° 0 mm 3 mps 752 mmHg 65%
    19:00 +16°C° 0 mm 3 mps 752 mmHg 70%
    20:00 +13°C° 0 mm 3 mps 752 mmHg 75%
    21:00 +12°C° 0 mm 3 mps 752 mmHg 75%
    22:00 +12°C° 0 mm 3 mps 752 mmHg 74%
    23:00 +11°C° 0 mm 3 mps 752 mmHg 74%
    Show more